(401923) = 1994 RO16 = 2001 XV166

Discovered at Socorro on 2001-12-14 by LINEAR.

Orbit

Orbit type: Main Belt

Note: WebGL enabled browser required.

epoch2023-02-25.0
epoch JD2460000.5
perihelion date2021-06-28.03638
perihelion JD2459393.53638
argument of perihelion (°)192.63272
ascending node (°)196.68307
inclination (°)2.48809
eccentricity0.2119969
perihelion distance (AU)1.7518202
Tisserand w.r.t. Jupiter3.6
ΔV w.r.t. Earth (km/sec)8.2
semimajor axis (AU)2.2231133
mean anomaly (°)180.47793
mean daily motion (°/day)0.29734550
aphelion distance (AU)2.694
period (years)3.31
P-vector [x]0.87199358
P-vector [y]0.45281543
P-vector [z]0.18597145
Q-vector [x]-0.48935864
Q-vector [y]0.81602585
Q-vector [z]0.30761980
absolute magnitude17.94
phase slope0.15
uncertainty0
referenceMPO 745323
observations used243
oppositions12
arc length (days)10515
first opposition used1994
last opposition used2023
residual rms (arc-secs)0.68
perturbers coarse indicatorM-v
perturbers precise indicator003Ek
first observation date used1994-09-03.0
last observation date used2023-06-18.0
computer nameMPCLINUX
JD of orbit computation2456966.822856
perihelion JD uncertainty (days)7.5061E-05
argument of perihelion uncertainty (°)7.0037E-05
ascending node uncertainty (°)6.3401E-05
inclination uncertainty (°)5.1408E-06
eccentricity uncertainty 5.0747E-08
perihelion distance uncertainty (AU)1.1194E-07
Minimum Orbit Intersection Distances (in AU)
for orbit epoch: 2460000.5, reference: E2023-M50
Mercury1.41917
Venus1.02821
Earth0.7553
Mars0.30138
Jupiter2.74268
Saturn6.8966
Uranus15.8408
Neptune28.0395

Observations

248 total observations over interval: 1994 09 03.22083 – 2023 06 18.332788
These data are available for download (format description).

Date (UT) J2000 RA J2000 Dec Magn Location Ref
1994 09 03.22083 22 33 43.79 -05 30 33.8   809 – European Southern Observatory, La Silla MPC 24694
1994 09 03.23403 22 33 42.95 -05 30 40.8   809 – European Southern Observatory, La Silla MPC 24694
1994 09 03.24722 22 33 42.21 -05 30 46.3   809 – European Southern Observatory, La Silla MPC 24694
1994 09 04.24722 22 32 50.25 -05 37 50.6 19.5   809 – European Southern Observatory, La Silla MPC 24694
1994 09 04.26042 22 32 49.58 -05 37 59.2   809 – European Southern Observatory, La Silla MPC 24694
1994 09 04.27361 22 32 48.75 -05 38 03.0   809 – European Southern Observatory, La Silla MPC 24694
2001 11 20.43380 06 16 43.71 +19 16 38.8 19.3   704 – Lincoln Laboratory ETS, New Mexico MPS 45331
2001 11 20.44848 06 16 43.23 +19 16 36.5 20.0   704 – Lincoln Laboratory ETS, New Mexico MPS 45331
2001 11 20.46329 06 16 42.80 +19 16 33.6 20.0   704 – Lincoln Laboratory ETS, New Mexico MPS 45331
2001 12 11.28760 05 58 52.03 +18 42 24.5 19.2   704 – Lincoln Laboratory ETS, New Mexico MPS 45331
2001 12 11.30307 05 58 50.99 +18 42 24.2 20.1   704 – Lincoln Laboratory ETS, New Mexico MPS 45331
2001 12 11.31881 05 58 49.89 +18 42 23.1 20.2   704 – Lincoln Laboratory ETS, New Mexico MPS 45331
2001 12 11.33388 05 58 48.94 +18 42 22.8 20.3   704 – Lincoln Laboratory ETS, New Mexico MPS 45331
2001 12 11.34896 05 58 47.70 +18 42 21.8 20.2   704 – Lincoln Laboratory ETS, New Mexico MPS 45331
2001 12 14.31599 05 55 27.27 +18 39 22.5 19.6   704 – Lincoln Laboratory ETS, New Mexico MPS 45331
2001 12 14.33114 05 55 26.21 +18 39 21.3 19.2   704 – Lincoln Laboratory ETS, New Mexico MPS 45331
2001 12 14.34628 05 55 25.09 +18 39 20.4 19.4   704 – Lincoln Laboratory ETS, New Mexico MPS 45331
2001 12 14.36148 05 55 24.03 +18 39 19.2 19.9   704 – Lincoln Laboratory ETS, New Mexico MPS 45331
2001 12 17.30038 05 52 02.67 +18 36 51.9 18.6   704 – Lincoln Laboratory ETS, New Mexico MPS 45331
2001 12 17.31551 05 52 01.58 +18 36 51.3 19.2   704 – Lincoln Laboratory ETS, New Mexico MPS 45331
2001 12 17.33065 05 52 00.47 +18 36 51.0 19.4   704 – Lincoln Laboratory ETS, New Mexico MPS 45331
2001 12 17.36094 05 51 58.28 +18 36 49.4 19.1   704 – Lincoln Laboratory ETS, New Mexico MPS 45331
2001 12 20.31272 05 48 36.57 +18 34 52.5 20.1   704 – Lincoln Laboratory ETS, New Mexico MPS 46939
2001 12 20.32788 05 48 35.57 +18 34 52.8 19.8   704 – Lincoln Laboratory ETS, New Mexico MPS 46939
2001 12 20.35853 05 48 33.39 +18 34 50.8 20.1   704 – Lincoln Laboratory ETS, New Mexico MPS 46939
2002 01 13.17070 05 27 38.95 +18 39 43.9 20.8 V 691 – Steward Observatory, Kitt Peak-Spacewatch MPS 46939
2002 01 13.17188 05 27 38.80 +18 39 43.4 20.5   704 – Lincoln Laboratory ETS, New Mexico MPS 55218
2002 01 13.18705 05 27 38.35 +18 39 43.5 20.6   704 – Lincoln Laboratory ETS, New Mexico MPS 55218
2002 01 13.20060 05 27 37.95 +18 39 45.8 20.7 V 691 – Steward Observatory, Kitt Peak-Spacewatch MPS 46939
2002 01 13.21741 05 27 37.33 +18 39 46.1 20.4   704 – Lincoln Laboratory ETS, New Mexico MPS 55218
2002 01 13.23281 05 27 36.87 +18 39 47.7 21.0 V 691 – Steward Observatory, Kitt Peak-Spacewatch MPS 46939
2004 09 08.23689 23 45 43.86 +01 04 49.9 19.0   704 – Lincoln Laboratory ETS, New Mexico MPS 112751
2004 09 08.24877 23 45 43.35 +01 04 45.1 19.2   704 – Lincoln Laboratory ETS, New Mexico MPS 112751
2004 09 08.26069 23 45 42.81 +01 04 41.0 19.5   704 – Lincoln Laboratory ETS, New Mexico MPS 112751
2004 09 08.27260 23 45 42.21 +01 04 35.7 20.0   704 – Lincoln Laboratory ETS, New Mexico MPS 112751
2004 09 08.28512 23 45 41.68 +01 04 31.4 19.9   704 – Lincoln Laboratory ETS, New Mexico MPS 112751
2004 09 09.23195 23 45 01.34 +00 58 13.5 19.5   704 – Lincoln Laboratory ETS, New Mexico MPS 115224
2004 09 09.24334 23 45 00.82 +00 58 08.9 19.4   704 – Lincoln Laboratory ETS, New Mexico MPS 115225
2004 09 09.25474 23 45 00.27 +00 58 04.1 19.6   704 – Lincoln Laboratory ETS, New Mexico MPS 115225
2004 09 09.26614 23 44 59.73 +00 57 59.9 19.5   704 – Lincoln Laboratory ETS, New Mexico MPS 115225
2004 09 09.27754 23 44 59.16 +00 57 54.9 19.3   704 – Lincoln Laboratory ETS, New Mexico MPS 115225
2004 09 13.23322 23 42 01.78 +00 30 08.5 18.7   704 – Lincoln Laboratory ETS, New Mexico MPS 112751
2004 09 13.24480 23 42 01.22 +00 30 03.4 19.3   704 – Lincoln Laboratory ETS, New Mexico MPS 112751
2004 09 13.25636 23 42 00.65 +00 29 58.1 19.3   704 – Lincoln Laboratory ETS, New Mexico MPS 112751
2004 09 13.26790 23 42 00.08 +00 29 52.8 19.0   704 – Lincoln Laboratory ETS, New Mexico MPS 112751
2004 09 13.27828 23 41 59.67 +00 29 48.6 18.8 R 699 – Lowell Observatory-LONEOS MPS 120424
2004 09 13.27945 23 41 59.50 +00 29 48.4 19.2   704 – Lincoln Laboratory ETS, New Mexico MPS 112751
2004 09 13.29771 23 41 58.62 +00 29 40.2   699 – Lowell Observatory-LONEOS MPS 120424
2004 09 13.31715 23 41 57.68 +00 29 31.2   699 – Lowell Observatory-LONEOS MPS 120424
2004 09 13.33659 23 41 56.70 +00 29 22.4   699 – Lowell Observatory-LONEOS MPS 120424
2004 09 15.34815 23 40 22.66 +00 14 30.4 20.0 R G92 – Jarnac Observatory, Vail MPS 112751
2004 09 15.38656 23 40 20.73 +00 14 13.2 20.0 R G92 – Jarnac Observatory, Vail MPS 112751
2004 09 15.42495 23 40 18.81 +00 13 55.8 20.0 R G92 – Jarnac Observatory, Vail MPS 112751
2004 09 16.33907 23 39 35.89 +00 07 02.2 19.0 V 691 – Steward Observatory, Kitt Peak-Spacewatch MPS 112751
2004 09 16.36950 23 39 34.33 +00 06 48.4 19.0 V 691 – Steward Observatory, Kitt Peak-Spacewatch MPS 112751
2004 09 16.40440 23 39 32.56 +00 06 32.6 19.1 V 691 – Steward Observatory, Kitt Peak-Spacewatch MPS 112751
2004 09 17.26889 23 38 52.02 -00 00 03.6 18.8   704 – Lincoln Laboratory ETS, New Mexico MPS 114271
2004 09 17.26899 23 38 51.99 -00 00 02.3 18.9   704 – Lincoln Laboratory ETS, New Mexico MPS 114271
2004 09 17.28056 23 38 51.37 -00 00 09.2 19.4   704 – Lincoln Laboratory ETS, New Mexico MPS 114271
2004 09 17.28066 23 38 51.35 -00 00 07.3 19.3   704 – Lincoln Laboratory ETS, New Mexico MPS 114271
2004 09 17.29224 23 38 50.82 -00 00 14.3 19.3   704 – Lincoln Laboratory ETS, New Mexico MPS 114271
2004 09 17.29234 23 38 50.83 -00 00 12.9 19.2   704 – Lincoln Laboratory ETS, New Mexico MPS 114271
2004 09 17.30392 23 38 50.21 -00 00 20.3 19.1   704 – Lincoln Laboratory ETS, New Mexico MPS 114271
2004 09 17.30402 23 38 50.19 -00 00 18.4 19.4   704 – Lincoln Laboratory ETS, New Mexico MPS 114271
2004 09 17.31570 23 38 49.62 -00 00 24.1 19.7   704 – Lincoln Laboratory ETS, New Mexico MPS 114271
2004 09 24.303357 23 33 21.366 -00 54 27.75 19.12 V 645 – Apache Point-Sloan Digital Sky Survey MPS 430036
2004 09 24.306829 23 33 21.196 -00 54 29.39 20.01   645 – Apache Point-Sloan Digital Sky Survey MPS 430036
2004 10 07.23093 23 24 57.88 -02 26 48.9 19.1   704 – Lincoln Laboratory ETS, New Mexico MPS 115680
2004 10 07.24163 23 24 57.52 -02 26 52.8 19.2   704 – Lincoln Laboratory ETS, New Mexico MPS 115680
2004 10 07.25234 23 24 57.21 -02 26 57.1 19.4   704 – Lincoln Laboratory ETS, New Mexico MPS 115680
2004 10 07.26304 23 24 56.79 -02 27 00.8 19.3   704 – Lincoln Laboratory ETS, New Mexico MPS 115680
2004 10 07.27374 23 24 56.37 -02 27 05.5 19.6   704 – Lincoln Laboratory ETS, New Mexico MPS 115680
2004 10 13.09140 23 22 33.85 -03 00 01.5 19.7 V 691 – Steward Observatory, Kitt Peak-Spacewatch MPS 116535
2004 10 13.11421 23 22 33.36 -03 00 08.3 19.6 V 691 – Steward Observatory, Kitt Peak-Spacewatch MPS 116535
2004 10 13.13065 23 22 32.98 -03 00 13.3 19.9 V 691 – Steward Observatory, Kitt Peak-Spacewatch MPS 116535
2006 03 25.33179 12 11 10.03 -02 11 46.1 20.8 V G96 – Mt. Lemmon Survey MPS 166957
2006 03 25.33825 12 11 09.63 -02 11 43.5 21.6 V G96 – Mt. Lemmon Survey MPS 166957
2006 03 25.34433 12 11 09.31 -02 11 41.3 20.9 V G96 – Mt. Lemmon Survey MPS 166957
2006 03 25.35008 12 11 08.95 -02 11 38.5 21.0 V G96 – Mt. Lemmon Survey MPS 166957
2009 02 03.34285 10 18 36.49 +07 02 12.6 21.0 V 691 – Steward Observatory, Kitt Peak-Spacewatch MPS 272259
2009 02 03.36093 10 18 35.44 +07 02 18.8 20.8 V 691 – Steward Observatory, Kitt Peak-Spacewatch MPS 272259
2009 02 03.37901 10 18 34.35 +07 02 25.0 20.8 V 691 – Steward Observatory, Kitt Peak-Spacewatch MPS 272259
